This is the latest recevied weather packets stored in our database for station/object KE5VT. If no packets are shown the sender has not sent any weather packets the latest 10 day(s).
| Time | Temp. | Humidity | Pressure | Rain* | Wind** | Luminosity | Snow |
|---|---|---|---|---|---|---|---|
| 1778003989 | 25.56° C | 38% | 1012.2 hPa | 0 mm | - | 269 W/m² | - |
| 1778003685 | 26.11° C | 41% | 1012.6 hPa | 0 mm | - | 833 W/m² | - |
| 1778003382 | 25.56° C | 41% | 1012.5 hPa | 0 mm | - | 295 W/m² | - |
| 1778003079 | 26.11° C | 38% | 1012.5 hPa | 0 mm | - | 516 W/m² | - |
| 1778002776 | 25.56° C | 39% | 1012.4 hPa | 0 mm | - | 769 W/m² | - |
| 1778002472 | 25.56° C | 42% | 1012.6 hPa | 0 mm | - | 786 W/m² | - |
| 1778002169 | 25° C | 41% | 1012.5 hPa | 0 mm | - | 784 W/m² | - |
| 1778001868 | 24.44° C | 43% | 1012.3 hPa | 0 mm | - | 672 W/m² | - |
| 1778001566 | 25° C | 41% | 1012.3 hPa | 0 mm | - | 157 W/m² | - |
| 1778001264 | 25.56° C | 42% | 1012.4 hPa | 0 mm | - | 744 W/m² | - |
| 1778000960 | 23.89° C | 43% | 1012.4 hPa | 0 mm | - | 832 W/m² | - |
| 1778000657 | 23.89° C | 45% | 1012.5 hPa | 0 mm | - | 631 W/m² | - |
| 1778000352 | 24.44° C | 43% | 1012.7 hPa | 0 mm | - | 573 W/m² | - |
| 1778000049 | 26.11° C | 42% | 1012.6 hPa | 0 mm | - | 771 W/m² | - |
| 1777999744 | 25.56° C | 39% | 1012.6 hPa | 0 mm | - | 756 W/m² | - |
| 1777999441 | 25° C | 42% | 1012.8 hPa | 0 mm | - | 730 W/m² | - |
| 1777999139 | 25.56° C | 41% | 1012.8 hPa | 0 mm | - | 725 W/m² | - |
| 1777998838 | 24.44° C | 43% | 1012.8 hPa | 0 mm | - | 774 W/m² | - |
| 1777998536 | 23.89° C | 46% | 1012.9 hPa | 0 mm | - | 742 W/m² | - |
| 1777998231 | 23.89° C | 47% | 1013.1 hPa | 0 mm | - | 736 W/m² | - |
| 1777997929 | 22.78° C | 49% | 1013.1 hPa | 0 mm | - | 670 W/m² | - |
| 1777997626 | 22.78° C | 51% | 1013.5 hPa | 0 mm | - | 564 W/m² | - |
| 1777997323 | 23.33° C | 53% | 1013.2 hPa | 0 mm | - | 503 W/m² | - |
| 1777997021 | 23.33° C | 54% | 1013.2 hPa | 0 mm | - | 500 W/m² | - |
| 1777996717 | 22.78° C | 55% | 1013.4 hPa | 0 mm | - | 511 W/m² | - |
* Rain latest hour (hover to see other rain measurements)
** Current wind speed in m/s (hover to see current wind gust speed)